Regional Weather Roundup
Issued by NWS Sioux Falls, SD

Home | Current Version | Previous Version | Text Only | Print | Product List | Glossary On
Versions: 1 2 3 4 5 6 7 8 9 10 11 12 13 14 15 16 17 18 19 20 21 22 23 24 25 26 27 28 29 30 31 32 33 34 35 36 37 38 39 40 41 42 43 44 45 46 47 48 49 50
000
ASUS43 KFSD 230410
RWRFSD

WEATHER ROUNDUP FOR SE SOUTH DAKOTA/SW MINNESOTA/NW IOWA
NATIONAL WEATHER SERVICE SIOUX FALLS SD
1100 PM CDT FRI MAY 22 2015

NOTE: "FAIR" INDICATES FEW OR NO CLOUDS BELOW 12,000 FEET WITH NO
SIGNIFICANT WEATHER AND OR OBSTRUCTIONS TO VISIBILITY.


SDZ038>040-050-052>070-230500-
SOUTHEAST SOUTH DAKOTA

CITY           SKY/WX    TMP DP  RH WIND       PRES   REMARKS
BROOKINGS      CLOUDY    55  43  62 CALM      30.22S
CHAMBERLAIN    MOCLDY    49  41  74 S5        30.18S
HURON          PTCLDY    53  42  66 S5        30.19R
MADISON        FAIR      54  41  62 W3        30.20S
MITCHELL       CLOUDY    54  46  74 NE3       30.19R
SIOUX FALLS    CLOUDY    57  43  59 S3        30.19S
WINNER         CLOUDY    52  41  66 SE9       30.17R
YANKTON        CLOUDY    59  41  51 S15       30.19R
$$

MNZ071-072-080-081-089-090-097-098-230500-
SOUTHWEST MINNESOTA

CITY           SKY/WX    TMP DP  RH WIND       PRES   REMARKS
FAIRMONT       PTCLDY    63  37  39 W13       30.21R
JACKSON        PTCLDY    59  43  55 W9        30.23R
LUVERNE        CLOUDY    59  45  58 CALM      30.21F
MARSHALL       CLOUDY    61  39  44 W17       30.19R
MONTEVIDEO     MOCLDY    61  36  39 S8        30.17S
PIPESTONE      MOCLDY    55  43  62 W1        30.22R
REDWOOD FALLS  CLOUDY    63  36  36 SE7       30.17R
TRACY          MOCLDY    61  43  52 W9        30.21R
WINDOM         PTCLDY    59  43  55 W12       30.22R
WORTHINGTON    PTCLDY    57  39  51 W7        30.22S
$$

IAZ001>003-012>014-020>022-031-032-NEZ013-014-SDZ071-230500-
NORTHWEST IOWA

CITY           SKY/WX    TMP DP  RH WIND       PRES   REMARKS
CHEROKEE       CLOUDY    60  45  57 S6        30.20R
DENISON        CLOUDY    57  50  77 SE6       30.19S
ESTHERVILLE    PTCLDY    59  42  53 W8        30.22R
LE MARS        CLOUDY    61  45  55 S7        30.21R
ORANGE CITY    CLOUDY    59  41  51 S7        30.20S
SHELDON        CLOUDY    59  43  55 CALM      30.20S
SIOUX CITY     CLOUDY    59  46  62 SE7       30.20R
SPENCER        CLOUDY    58  45  62 W3        30.22R
STORM LAKE     CLOUDY    59  46  63 S8        30.22S
$$

ABBREVIATIONS USED IN REMARKS
   TC - TEMPERATURE IN CELSIUS
  WCI - WIND CHILL INDEX
   HX - HEAT INDEX
  VSB - VISIBILITY



USA.gov is the U.S. government's official web portal to all federal, state and local government web resources and services.